Andravida, Greece

7:35 PM EET on November 23, 2017 (GMT +0200)
Andravida Air Base

Weather History for LGAD - January, 2014

Change the Weather History Date:

Saturday, January 4, 2014

  Actual Average Record
Temperature  
Mean Temperature 50 °F -  
Max Temperature 61 °F 55 °F 66 °F (1997)
Min Temperature 39 °F 39 °F 30 °F (2000)
Degree Days  
Heating Degree Days 15    
Moisture  
Dew Point 44 °F    
Average Humidity 81    
Maximum Humidity 93    
Minimum Humidity 54    
Precipitation  
Precipitation 0.00 in - - ()
Sea Level Pressure  
Sea Level Pressure 30.24 in    
Wind  
Wind Speed 2 mph ()    
Max Wind Speed 6 mph    
Max Gust Speed -    
Visibility 6.1 miles    
Events      
Averages and records for this station are not official NWS values.
T = Trace of Precipitation, MM = Missing Value Source: Averaged Metar Reports

Daily Weather History Graph

Daily Weather History Graph

Search for Another Location

Airport or City:

Trip Planner

Search our weather history database for the weather conditions in past years. The results will help you decide how hot, cold, wet, or windy it might be!

Date:

Astronomy

Jan. 04, 2014 Rise Set
Actual Time 7:51 AM EET 5:28 PM EET
Civil Twilight 7:21 AM EET 5:57 PM EET
Nautical Twilight 6:48 AM EET 6:30 PM EET
Astronomical Twilight 6:17 AM EET 7:02 PM EET
Moon 9:48 AM EET (1/4) 9:22 PM EET (1/4)
Length of Visible Light 10h 36m
Length of Day
9h 37m
Waxing Crescent, 13% of the Moon is Illuminated
Jan 4
Waxing Crescent
Jan 8
First Quarter
Jan 16
Full
Jan 24
Last Quarter
Jan 30
New

Hourly Weather History & Observations

Time (EET) Temp. Windchill Dew Point Humidity Pressure Visibility Wind Dir Wind Speed Gust Speed Precip Events Conditions
2:00 AM 45 °F - 42 °F 86% 30.23 in 6 mi Calm Calm - -   Scattered Clouds
3:50 AM 44.6 °F 42.2 °F 42.8 °F 93% 30.21 in 6.2 mi SSE 4.6 mph - N/A   Partly Cloudy
4:20 AM 44.6 °F 42.2 °F 42.8 °F 93% 30.21 in 6.2 mi SSE 4.6 mph - N/A   Partly Cloudy
4:50 AM 44.6 °F - 41.0 °F 87% 30.21 in 6.2 mi Calm Calm - N/A   Partly Cloudy
5:00 AM 44 °F - 41 °F 83% 30.24 in 6 mi Calm Calm - -   Scattered Clouds
5:20 AM 41.0 °F - 39.2 °F 93% 30.21 in 6.2 mi Calm Calm - N/A   Partly Cloudy
5:50 AM 41.0 °F - 39.2 °F 93% 30.21 in 6.2 mi Calm Calm - N/A   Partly Cloudy
6:20 AM 41.0 °F - 39.2 °F 93% 30.21 in 6.2 mi Calm Calm - N/A   Partly Cloudy
6:50 AM 41.0 °F - 39.2 °F 93% 30.21 in 6.2 mi Calm Calm - N/A   Partly Cloudy
7:20 AM 41.0 °F - 39.2 °F 93% 30.21 in 6.2 mi Calm Calm - N/A   Partly Cloudy
7:50 AM 39.2 °F - 37.4 °F 93% 30.24 in - Calm Calm - N/A   Clear
8:00 AM 40 °F - 37 °F 87% 30.25 in 6 mi Calm Calm - -  
8:20 AM 39.2 °F - 37.4 °F 93% 30.24 in - Calm Calm - N/A   Clear
8:50 AM 41.0 °F - 39.2 °F 93% 30.24 in - Calm Calm - N/A   Clear
9:20 AM 46.4 °F - 42.8 °F 87% 30.24 in - Calm Calm - N/A   Clear
9:50 AM 51.8 °F - 46.4 °F 82% 30.27 in - Calm Calm - N/A   Clear
10:20 AM 53.6 °F - 46.4 °F 77% 30.27 in - Calm Calm - N/A   Clear
10:50 AM 57.2 °F - 48.2 °F 72% 30.27 in - Calm Calm - N/A   Clear
11:00 AM 56 °F - 48 °F 68% 30.29 in 6 mi Calm Calm - -  
11:20 AM 57.2 °F - 48.2 °F 72% 30.27 in - Calm Calm - N/A   Clear
11:50 AM 59.0 °F - 48.2 °F 67% 30.27 in - NNW 5.8 mph - N/A   Clear
12:20 PM 59.0 °F - 48.2 °F 67% 30.27 in - NNW 5.8 mph - N/A   Clear
12:50 PM 60.8 °F - 48.2 °F 63% 30.24 in - NNE 4.6 mph - N/A   Clear
1:20 PM 60.8 °F - 48.2 °F 63% 30.21 in - North 4.6 mph - N/A   Clear
1:50 PM 60.8 °F - 48.2 °F 63% 30.21 in - NW 4.6 mph - N/A   Clear
2:00 PM 61 °F - 49 °F 54% 30.22 in 6 mi NNW 5.8 mph - -  
2:20 PM 60.8 °F - 48.2 °F 63% 30.21 in - NW 5.8 mph - N/A   Clear
2:50 PM 60.8 °F - 48.2 °F 63% 30.21 in - NNW 5.8 mph - N/A   Clear
3:20 PM 60.8 °F - 48.2 °F 63% 30.21 in - NNW 5.8 mph - N/A   Clear
3:50 PM 60.8 °F - 48.2 °F 63% 30.24 in - NW 4.6 mph - N/A   Clear
4:20 PM 60.8 °F - 48.2 °F 63% 30.24 in - NW 4.6 mph - N/A   Clear
4:50 PM 59.0 °F - 48.2 °F 67% 30.24 in - NNW 3.5 mph - N/A   Clear
5:00 PM 56 °F - 49 °F 70% 30.25 in 6 mi NNW 3.5 mph - -  
5:20 PM 55.4 °F - 48.2 °F 77% 30.24 in - Calm Calm - N/A   Clear
5:50 PM 51.8 °F - 48.2 °F 88% 30.24 in - Calm Calm - N/A   Clear
6:20 PM 50.0 °F - 46.4 °F 87% 30.24 in - Calm Calm - N/A   Clear
6:50 PM 50.0 °F - 46.4 °F 87% 30.24 in - Calm Calm - N/A   Clear
7:20 PM 50.0 °F - 46.4 °F 87% 30.24 in - Calm Calm - N/A   Clear
7:50 PM 46.4 °F - 44.6 °F 93% 30.24 in - Calm Calm - N/A   Clear
8:00 PM 47 °F - 44 °F 84% 30.26 in 6 mi Calm Calm - -  
8:20 PM 46.4 °F - 42.8 °F 87% 30.24 in - Calm Calm - N/A   Clear
8:50 PM 44.6 °F - 42.8 °F 93% 30.24 in - Calm Calm - N/A   Clear
9:20 PM 46.4 °F - 42.8 °F 87% 30.24 in - Calm Calm - N/A   Clear
9:50 PM 46.4 °F 44.3 °F 44.6 °F 93% 30.24 in - SE 4.6 mph - N/A   Clear
10:20 PM 46.4 °F 44.3 °F 44.6 °F 93% 30.24 in - SE 4.6 mph - N/A   Clear
10:50 PM 46.4 °F 45.2 °F 42.8 °F 87% 30.24 in - SE 3.5 mph - N/A   Clear
11:00 PM 47 °F - 43 °F 82% 30.26 in 6 mi SE 3.5 mph - -  
11:20 PM 46.4 °F 45.2 °F 42.8 °F 87% 30.24 in - SE 3.5 mph - N/A   Clear
11:50 PM 46.4 °F 45.2 °F 42.8 °F 87% 30.24 in - SE 3.5 mph - N/A   Clear